Terminal Aerodrome Forecast
Issued by NWS Kansas City/Pleasant Hill, MO

Home | Current Version | Previous Version | Text Only | Print | Product List | Glossary On
Versions: 1 2 3 4 5 6 7 8 9 10 11 12 13 14 15 16 17 18 19
000
FTUS43 KEAX 192158 AAA
TAFMCI
TAF AMD
KMCI 192158Z 1922/2018 VRB05KT P6SM SCT040 BKN050 BKN250
     FM192300 23010KT P6SM VCTS SCT040CB BKN050 BKN250
      TEMPO 1923/2002 1SM TSRA OVC040CB
     FM200300 32010KT P6SM BKN100
     FM200800 33005KT P6SM BKN008
     FM201500 35003KT P6SM BKN015=

USA.gov is the U.S. government's official web portal to all federal, state and local government web resources and services.